Flag for U.S.A. Weather past 2 weeks in San Buenaventura, California, U.S.A.

Now
62 °F

Overcast.


Feels Like: 62 °F
Forecast: 55 / 66 °F
Wind: 10 mph from East

Location: Oxnard Airport

Current Time: Jan 26, 2015 at 8:05:45 PM

Latest Report: Jan 26, 2015 at 6:51 PM


Visibility: 10 mi

Pressure: 30.04 "Hg

Humidity: 65%

Dew point: 50 °F

Location of San BuenaventuraLocation

Historic Weather in San Buenaventura — Graph

°F

San Buenaventura temperature yesterday

Maximum temperature yesterday: 84 °F (at 12:51 PM)
Minimum temperature yesterday: 56 °F (at 1:51 AM)
Average temperature yesterday: 70 °F

Past Weeks' High & Low Weather Summary

 TemperatureHumidityPressure
High84 °F (Jan 25, 12:51 PM)93% (Jan 20, 1:51 AM)30.27 "Hg (Jan 20, 1:51 AM)
Low49 °F (Jan 14, 4:51 AM)13% (Jan 22, 11:51 AM)29.92 "Hg (Jan 20, 4:51 PM)
Average60 °F56%30.11 "Hg
* Reported Jan 11 5:51 PM — Jan 26 5:51 PM, San Buenaventura, Weather by CustomWeather, © 2014

Note: Actual official high and low records may vary slightly from our data, if they occured in-between our weather recording intervals... More about our weather records

Advertising

San Buenaventura weather history for previous 24 hours

 ConditionsComfort  
Time TempWeatherWind HumidityBarometerVisibility
5:51 PM
Jan 26
65 °FOvercast.12 mph49%30.04 "Hg10 mi
4:51 PM67 °FLight rain. Overcast.10 mph49%30.01 "Hg10 mi
3:51 PM69 °FPartly sunny.9 mph42%29.99 "Hg10 mi
2:51 PM74 °FOvercast.12 mph31%29.96 "Hg10 mi
1:51 PM75 °FPartly sunny.7 mph27%29.96 "Hg10 mi
12:51 PM75 °FScattered clouds.8 mph31%29.96 "Hg10 mi
11:51 AM78 °FOvercast.5 mph25%29.97 "Hg10 mi
10:51 AM74 °FScattered clouds.6 mph35%29.99 "Hg10 mi
9:51 AM69 °FPartly sunny.6 mph47%29.99 "Hg10 mi
8:51 AM68 °FOvercast.3 mph35%30.00 "Hg10 mi
7:51 AM61 °FPartly sunny.7 mph50%29.98 "Hg10 mi
6:51 AM63 °FClear.3 mph40%29.97 "Hg10 mi
5:51 AM64 °FClear.5 mph38%29.95 "Hg10 mi
4:51 AM61 °FPassing clouds.5 mph44%29.96 "Hg10 mi
3:51 AM59 °FPassing clouds.No wind54%29.96 "Hg10 mi
2:51 AM57 °FClear.5 mph51%29.99 "Hg10 mi
1:51 AM64 °FClear.No wind35%29.99 "Hg10 mi
12:51 AM63 °FClear.5 mph40%30.00 "Hg10 mi
11:51 PM
Jan 25
64 °FClear.8 mph40%30.02 "Hg10 mi
10:51 PM63 °FClear.7 mph41%30.02 "Hg10 mi
9:51 PM60 °FClear.6 mph53%30.02 "Hg10 mi
8:51 PM62 °FClear.6 mph50%30.02 "Hg10 mi
Weather by CustomWeather, © 2014

See weather overviewHow to use our weather pages